Regional Weather Roundup
Issued by NWS

Home | Current Version | Previous Version | Graphics & Text | Print | Product List | Glossary On
Versions: 1 2 3 4 5 6 7 8 9 10 11 12 13 14 15 16 17 18 19 20 21 22 23 24 25 26 27 28 29 30 31 32 33 34 35 36 37 38 39 40 41 42 43 44 45 46 47 48 49 50
275
ASUS43 KLOT 221907
RWRIL

ILLINOIS REGIONAL WEATHER ROUNDUP
NATIONAL WEATHER SERVICE CHICAGO/ROMEOVILLE IL
200 PM CDT WED MAR 22 2017

NOTE: "FAIR" INDICATES FEW OR NO CLOUDS BELOW 12,000 FEET WITH NO
SIGNIFICANT WEATHER AND/OR OBSTRUCTIONS TO VISIBILITY.

* THESE STATIONS ARE NOT UNDER NWS QUALITY CONTROL. THEY ALSO MAY NOT
  REPORT WEATHER SUCH AS PRECIPITATION OR FOG.

ILZ001-002-007-009-015-016-024-222000-
NORTHWEST ILLINOIS

CITY           SKY/WX    TMP DP  RH WIND       PRES   REMARKS
MOLINE         SUNNY     41  17  38 E9G20     30.52F
STERLING*      SUNNY     40  20  44 E10       30.54F
SAVANNA*       SUNNY     40  13  33 E12       30.54F
$$

ILZ003-004-008-010-011-017-018-222000-
NORTH CENTRAL ILLINOIS

CITY           SKY/WX    TMP DP  RH WIND       PRES   REMARKS
ROCKFORD       MOSUNNY   40  16  37 VRB6      30.55F
FREEPORT*      SUNNY     38  13  37 E9G16     30.55F WCI  31
ROCHELLE*      SUNNY     39  19  43 E7        30.54F WCI  34
DE KALB*       SUNNY     38  19  45 E9        30.54F WCI  32
PERU*          SUNNY     38  21  49 E10       30.53F WCI  31
$$

ILZ005-006-012>014-019>023-222000-
NORTHEAST ILLINOIS

CITY           SKY/WX    TMP DP  RH WIND       PRES   REMARKS
CHICAGO-OHARE  MOSUNNY   37  18  46 NE12      30.56F WCI  29
CHICAGO-MIDWAY MOSUNNY   33  18  53 E12       30.58S WCI  24
AURORA         SUNNY     39  19  44 E8        30.54F WCI  33
LANSING*       SUNNY     32  19  58 N8        30.58S WCI  25
JOLIET*        SUNNY     38  21  49 NE6       30.56F WCI  34
WAUKEGAN       PTSUNNY   31  19  61 NE9       30.57F WCI  23
DUPAGE AIRPORT SUNNY     37  19  48 MISG      30.54F
KANKAKEE*      SUNNY     38  15  39 NE6       30.55F WCI  33
WHEELING       MOSUNNY   32  18  56 VRB6      30.59S WCI  26
MORRIS*        SUNNY     39  20  46 NE6       30.54F WCI  35
ROMEOVILLE*    SUNNY     36  24  60 E12G17    30.55F WCI  28
NORTHERLY ISL    N/A     30  18  60 NE10        N/A  WCI  21
$$

LMZ740>746-222000-
SOUTHERN LAKE MICHIGAN

STATION/POSITION SKY/WX   TEMP    WIND        PRES    VSBY  WAVE
                          AIR SEA DIR/SP/G                  HT/PER
                          (F)     (DEG/KT/KT) (MB)    (MI)  (FT/S)
HARRISON CRIB              28      70/ 10/ 12   N/A
BURNHAM HARBOR             30      60/  7/ 12   N/A
CALUMET HARBOR             29      40/  9/ 14 1034.9F
BURNS HARBOR               27      20/  8/ 11 1035.9S
MICHIGAN CITY              27     360/ 12/ 13   N/A
$$

ILZ025>027-034>036-040-047-049-050-058-095>099-222000-
WEST-CENTRAL ILLINOIS

CITY           SKY/WX    TMP DP  RH WIND       PRES   REMARKS
QUINCY         SUNNY     45  16  31 E9G20     30.44F
GALESBURG*     SUNNY     41  23  49 E7        30.49F
MACOMB*        SUNNY     42  17  36 E6G16     30.51F
JACKSONVILLE*  SUNNY     44  12  26 E10G20    30.47F
PITTSFIELD*    SUNNY     45  17  32 NE13      30.46F
$$

ILZ028>032-037-038-041>044-048-051>054-059>061-222000-
CENTRAL ILLINOIS

CITY           SKY/WX    TMP DP  RH WIND       PRES   REMARKS
PONTIAC        SUNNY     38  25  58 E14       30.53F WCI  30
BLOOMINGTON    SUNNY     39  14  36 E16       30.51F WCI  30
DECATUR        SUNNY     42  14  32 E17G23    30.48F
PEORIA         SUNNY     40  20  44 E10       30.52F
LACON*         MOSUNNY   39  24  56 E12G17    30.53F WCI  32
LINCOLN*       SUNNY     42  13  30 E10G17    30.50F
SPRINGFIELD    SUNNY     46  11  24 E14       30.48F
TAYLORVILLE    SUNNY     44  10  25 E14G21    30.47F
$$

ILZ033-039-045-046-055>057-062-063-222000-
EAST-CENTRAL ILLINOIS

CITY           SKY/WX    TMP DP  RH WIND       PRES   REMARKS
CHAMPAIGN      SUNNY     41  16  36 E14       30.49F
RANTOUL*       SUNNY     40  21  47 E14       30.50F
MATTOON        SUNNY     43  14  31 NE10G23   30.46F
PARIS*         SUNNY     40  22  49 NE15      30.49F
$$

ILZ079-100>102-222000-
SOUTHWEST ILLINOIS

CITY           SKY/WX    TMP DP  RH WIND       PRES   REMARKS
ALTON          MOSUNNY   46  18  31 NE12      30.43F
BELLEVILLE     SUNNY     49  22  35 NE12G21   30.41F
CAHOKIA*       SUNNY     50  21  32 NE9       30.43F
SPARTA*        MOSUNNY   47  25  40 NE10G18   30.42F
$$

ILZ064>066-069>071-074>076-080>082-084>086-088>090-092>094-222000-
SOUTH-CENTRAL ILLINOIS

CITY           SKY/WX    TMP DP  RH WIND       PRES   REMARKS
CARBONDALE     SUNNY     50  25  37 NE13      30.40F
CAIRO*         MOSUNNY   53  28  38 NE13      30.36F
EFFINGHAM*     SUNNY     46  21  37 N8        30.47F
MARION         MOSUNNY   55  23  28 NE14      30.40F
MT. VERNON     SUNNY     48  22  35 NE12      30.42F
CENTRALIA*     SUNNY     47  26  43 E10G16    30.42F
SALEM*         SUNNY     47  20  34 E10G16    30.44F
METROPOLIS*    SUNNY     55  27  34 E9        30.38F
$$

ILZ067-068-072-073-078-083-087-091-222000-
SOUTHEAST ILLINOIS

CITY           SKY/WX    TMP DP  RH WIND       PRES   REMARKS
LAWRENCEVILLE  SUNNY     48  17  29 NE15G23   30.45F
FLORA*         SUNNY     47  20  34 NE14      30.44F
FAIRFIELD*     SUNNY     47  23  39 NE7       30.42F
HARRISBURG*    SUNNY     49  26  39 E12G20    30.41F
ROBINSON*      SUNNY     45  15  30 NE9       30.47F
CARMI*           N/A    N/A N/A N/A MISG        N/A
$$

ABBREVIATIONS USED IN REMARKS
   TC - TEMPERATURE IN CELSIUS
  WCI - WIND CHILL INDEX
   HX - HEAT INDEX
  VSB - VISIBILITY
$$





USA.gov is the U.S. government's official web portal to all federal, state and local government web resources and services.